Погода в Алис-Спрингс

Австралия     23°43′24″S   133°53′01″E
В апреле 2022 года жителям России запретили посещать сайт meteo.paraplan.net по решению Генеральной прокуратуры. Аудитория сайта уменьшилась в 10 раз. Владельцы сайта не видят смысла в поддержке погодного сервера в таких условиях. Сайт будет закрыт в октябре.
темп.,
°C
ветер,
м/с
пор.,
м/с
влажн.,
%
обл.,
%
осадки,
мм/ч
давл.,
гПа
погр.,
м
29 сентября, чт
чт2900:30+15в511340 0.0 1019221
03:30+13в35390 0.0 101985
06:30+11в334516 0.0 102118
09:30+18в77305 0.0 1021898
12:30+23вюв66195 0.0 10191474
15:30+25вюв66163 0.0 10161945
18:30+21вюв68215 0.0 1018134
21:30+18вюв5102547 0.0 1020164
30 сентября, пт
пт3000:30+16в4102599 0.0 1020180
03:30+14в333159 0.0 101926
06:30+13вюв33374 0.0 102122
09:30+20в782875 0.0 1021930
12:30+25в6518100 0.0 10181576
15:30+26вюв651582 0.0 10151905
18:30+23вюв5719100 0.0 1016150
21:30+21вюв5923100 0.0 1018198
1 октября, сб
сб100:30+20в4625100 0.0 1016122
03:30+19вюв3728100 0.0 1016206
06:30+18ююв5730100 0.0 1018239
09:30+13всв6869100 2.3 1019334
12:30+16вюв2264100 0.9 1018394
15:30+19юв2252100 0.9 1014820
18:30+18юв2254100 0.0 1015160
21:30+17ссв1163100 0.1 101783
2 октября, вс
вс200:30+16с3479100 0.6 1015353
03:30+16зсз1184100 0.6 101322
06:30+16в1182100 0.0 101445
09:30+20в5560100 0.0 1014532
12:30+24св5740100 0.0 10121968
15:30+26ссв6734100 0.0 10092248
18:30+24с693697 0.0 1010429
21:30+21ссз71052100 0.0 1012376
3 октября, пн
пн300:30+19с486199 0.0 1012172
03:30+19ссв475914 0.0 1010125
06:30+19ссв5105345 0.0 1011285
09:30+26с9113013 0.0 10111117
12:30+29ссз7113223 1.1 10092227
15:30+30сз710266 1.3 10062347
18:30+28сз4530100 0.0 100668
21:30+21юз677296 3.3 1010284